EAG5504 SBFZ-SAEZ

Flight info

Callsign EAG5504
Flight time N/A
Altitude 36000
Route ERUGU UN741 GEVMI UM654 BIXAN UN741 EGBUG/N0484F380 UN741 PAPIX
Aircraft B789/H-SDE1E2E3FGHIJ2J3J4J5M1RWXY/LB1D1

Departure

Time 2026-05-08 16:24
Airport Pinto Martins International Airport (SBFZ)

Arrival

Time N/A
Airport Ezeiza International Airport - Ministro Pistarini (SAEZ)
Time Latitude Longitude Altitude Speed Heading
2026-05-08 15:52 -3.77757 -38.54201 95 ft 0 kts 122°
2026-05-08 15:52 -3.77836 -38.54032 95 ft 0 kts 122°
2026-05-08 15:52 -3.77757 -38.54201 95 ft 7 kts 122°
2026-05-08 15:53 -3.77757 -38.54202 95 ft 0 kts 122°
2026-05-08 15:53 -3.77757 -38.54201 95 ft 0 kts 122°
2026-05-08 15:54 -3.77754 -38.54188 95 ft 0 kts 128°
2026-05-08 15:54 -3.77759 -38.54192 95 ft 0 kts 128°
2026-05-08 15:55 -3.77766 -38.54197 95 ft 0 kts 128°
2026-05-08 15:55 -3.77760 -38.54199 95 ft 0 kts 128°
2026-05-08 15:56 -3.77753 -38.54189 95 ft 0 kts 128°
2026-05-08 15:56 -3.77760 -38.54199 95 ft 0 kts 128°
2026-05-08 16:15 -3.77745 -38.54217 95 ft 4 kts 129°
2026-05-08 16:15 -3.77727 -38.54238 95 ft 4 kts 131°
2026-05-08 16:15 -3.77710 -38.54257 95 ft 2 kts 132°
2026-05-08 16:16 -3.77696 -38.54270 95 ft 4 kts 160°
2026-05-08 16:16 -3.77674 -38.54271 95 ft 4 kts 190°
2026-05-08 16:16 -3.77649 -38.54265 95 ft 4 kts 207°
2026-05-08 16:16 -3.77633 -38.54252 95 ft 4 kts 248°
2026-05-08 16:17 -3.77632 -38.54231 95 ft 4 kts 286°
2026-05-08 16:17 -3.77638 -38.54214 95 ft 4 kts 294°
2026-05-08 16:17 -3.77652 -38.54182 95 ft 3 kts 286°
2026-05-08 16:17 -3.77653 -38.54178 95 ft 0 kts 284°
2026-05-08 16:20 -3.77652 -38.54183 95 ft 2 kts 284°
2026-05-08 16:20 -3.77645 -38.54209 95 ft 5 kts 284°
2026-05-08 16:20 -3.77633 -38.54258 95 ft 9 kts 284°
2026-05-08 16:21 -3.77614 -38.54329 95 ft 12 kts 289°
2026-05-08 16:21 -3.77543 -38.54378 95 ft 15 kts 351°
2026-05-08 16:21 -3.77440 -38.54382 95 ft 12 kts 11°
2026-05-08 16:21 -3.77419 -38.54377 95 ft 0 kts 14°
2026-05-08 16:22 -3.77407 -38.54374 95 ft 4 kts 14°
2026-05-08 16:22 -3.77371 -38.54365 95 ft 7 kts 14°
2026-05-08 16:22 -3.77345 -38.54352 95 ft 2 kts 58°
2026-05-08 16:22 -3.77344 -38.54340 95 ft 3 kts 95°
2026-05-08 16:23 -3.77360 -38.54270 95 ft 31 kts 105°
2026-05-08 16:23 -3.77494 -38.53768 95 ft 117 kts 105°
2026-05-08 16:23 -3.77766 -38.52745 96 ft 182 kts 103°
2026-05-08 16:23 -3.78119 -38.51427 436 ft 205 kts 105°
2026-05-08 16:24 -3.78501 -38.50051 1372 ft 204 kts 106°
2026-05-08 16:24 -3.78913 -38.48695 2414 ft 204 kts 105°
2026-05-08 16:24 -3.79335 -38.47289 3079 ft 217 kts 105°
2026-05-08 16:24 -3.79777 -38.45807 3576 ft 233 kts 105°
2026-05-08 16:25 -3.80465 -38.44273 3965 ft 254 kts 124°
2026-05-08 16:25 -3.81930 -38.43218 4588 ft 270 kts 156°
2026-05-08 16:25 -3.83820 -38.43018 5302 ft 284 kts 183°
2026-05-08 16:25 -3.85702 -38.43661 5661 ft 285 kts 204°
2026-05-08 16:26 -3.87450 -38.44586 6237 ft 288 kts 205°
2026-05-08 16:26 -3.89226 -38.45496 7233 ft 284 kts 204°
2026-05-08 16:26 -3.90993 -38.46357 8255 ft 281 kts 203°
2026-05-08 16:26 -3.92757 -38.47188 9159 ft 280 kts 202°
2026-05-08 16:27 -3.94537 -38.48011 9982 ft 283 kts 202°
2026-05-08 16:27 -3.96368 -38.48834 10531 ft 296 kts 199°
2026-05-08 16:27 -3.98377 -38.49462 10973 ft 311 kts 193°
2026-05-08 16:27 -4.00526 -38.50026 11467 ft 326 kts 192°
2026-05-08 16:28 -4.02785 -38.50599 11913 ft 342 kts 192°
2026-05-08 16:28 -4.05153 -38.51195 12324 ft 359 kts 193°
2026-05-08 16:28 -4.07591 -38.51811 12848 ft 372 kts 193°
2026-05-08 16:28 -4.10167 -38.52462 13497 ft 381 kts 193°
2026-05-08 16:29 -4.12765 -38.53121 14183 ft 388 kts 193°
2026-05-08 16:29 -4.15403 -38.53791 14879 ft 395 kts 193°
2026-05-08 16:29 -4.18053 -38.54465 15582 ft 400 kts 193°
2026-05-08 16:29 -4.20773 -38.55156 16255 ft 406 kts 193°
2026-05-08 16:30 -4.23535 -38.55858 16877 ft 413 kts 193°
2026-05-08 16:30 -4.26351 -38.56572 17457 ft 421 kts 193°
2026-05-08 16:30 -4.29220 -38.57298 18022 ft 428 kts 193°
2026-05-08 16:30 -4.32136 -38.58036 18596 ft 435 kts 193°
2026-05-08 16:31 -4.35088 -38.58783 19201 ft 440 kts 194°
2026-05-08 16:31 -4.38079 -38.59541 19855 ft 443 kts 194°
2026-05-08 16:31 -4.41081 -38.60305 20516 ft 446 kts 195°
2026-05-08 16:31 -4.44103 -38.61075 21142 ft 450 kts 195°
2026-05-08 16:32 -4.47137 -38.61914 21716 ft 454 kts 199°
2026-05-08 16:32 -4.50093 -38.63058 22304 ft 456 kts 204°
2026-05-08 16:32 -4.52964 -38.64327 22881 ft 459 kts 206°
2026-05-08 16:32 -4.55873 -38.65689 23468 ft 461 kts 207°
2026-05-08 16:33 -4.58780 -38.67080 24066 ft 463 kts 207°
2026-05-08 16:33 -4.61688 -38.68482 24650 ft 465 kts 208°
2026-05-08 16:33 -4.64613 -38.69892 25198 ft 467 kts 208°
2026-05-08 16:33 -4.67565 -38.71313 25685 ft 471 kts 208°
2026-05-08 16:34 -4.70530 -38.72737 26131 ft 475 kts 208°
2026-05-08 16:34 -4.72513 -38.73690 26430 ft 477 kts 207°
2026-05-08 16:34 -4.75516 -38.75130 26895 ft 480 kts 207°
2026-05-08 16:34 -4.78539 -38.76580 27378 ft 482 kts 208°
2026-05-08 16:35 -4.81585 -38.78041 27848 ft 485 kts 208°
2026-05-08 16:35 -4.84632 -38.79505 28281 ft 487 kts 208°
2026-05-08 16:35 -4.87708 -38.80983 28686 ft 491 kts 208°
2026-05-08 16:35 -4.90802 -38.82471 29068 ft 494 kts 208°
2026-05-08 16:36 -4.93874 -38.83948 29452 ft 497 kts 208°
2026-05-08 16:36 -4.97008 -38.85456 29854 ft 499 kts 208°
2026-05-08 16:36 -5.00147 -38.86966 30252 ft 501 kts 208°
2026-05-08 16:36 -5.03300 -38.88483 30646 ft 504 kts 208°
2026-05-08 16:37 -5.06463 -38.90006 31026 ft 506 kts 208°
2026-05-08 16:37 -5.09648 -38.91540 31394 ft 509 kts 208°
2026-05-08 16:37 -5.12843 -38.93078 31837 ft 509 kts 208°
2026-05-08 16:37 -5.16046 -38.94620 32321 ft 509 kts 208°
2026-05-08 16:38 -5.19247 -38.96161 32717 ft 511 kts 208°
2026-05-08 16:38 -5.22453 -38.97706 33103 ft 512 kts 208°
2026-05-08 16:38 -5.25675 -38.99258 33483 ft 514 kts 208°
2026-05-08 16:38 -5.28901 -39.00812 33856 ft 515 kts 208°
2026-05-08 16:39 -5.32142 -39.02375 34227 ft 517 kts 208°
2026-05-08 16:39 -5.35379 -39.03935 34595 ft 518 kts 208°
2026-05-08 16:39 -5.38637 -39.05505 34959 ft 519 kts 207°
2026-05-08 16:39 -5.41908 -39.07083 35324 ft 520 kts 207°
2026-05-08 16:40 -5.45173 -39.08656 35686 ft 521 kts 207°
2026-05-08 16:40 -5.48445 -39.10232 36054 ft 522 kts 207°
2026-05-08 16:40 -5.51718 -39.11808 36411 ft 522 kts 207°
2026-05-08 16:40 -5.54959 -39.13369 36764 ft 523 kts 206°
2026-05-08 16:41 -5.58239 -39.14950 37117 ft 523 kts 206°
2026-05-08 16:41 -5.61527 -39.16534 37481 ft 523 kts 206°
2026-05-08 16:41 -5.64780 -39.18100 38151 ft 510 kts 203°
2026-05-08 16:42 -5.71129 -39.21143 38845 ft 507 kts 202°
2026-05-08 16:42 -5.77412 -39.24160 38694 ft 494 kts 202°
2026-05-08 16:43 -5.83567 -39.27126 38556 ft 485 kts 204°
2026-05-08 16:43 -5.89588 -39.30032 38349 ft 476 kts 204°
2026-05-08 16:43 -5.92535 -39.31454 38106 ft 476 kts 204°
2026-05-08 16:44 -5.95511 -39.32889 37989 ft 473 kts 204°
2026-05-08 16:44 -6.01483 -39.35771 37973 ft 477 kts 204°
2026-05-08 16:45 -6.07480 -39.38666 37963 ft 478 kts 204°
2026-05-08 16:45 -6.13439 -39.41543 37957 ft 478 kts 204°
2026-05-08 16:46 -6.19450 -39.44445 37971 ft 478 kts 204°
2026-05-08 16:46 -6.25431 -39.47332 37963 ft 479 kts 204°
2026-05-08 16:47 -6.31437 -39.50235 37961 ft 478 kts 204°
2026-05-08 16:47 -6.37450 -39.53142 37975 ft 479 kts 204°
2026-05-08 16:48 -6.43450 -39.56042 37964 ft 479 kts 204°
2026-05-08 16:48 -6.48479 -39.58474 37964 ft 479 kts 204°
2026-05-08 16:49 -6.55466 -39.61852 37980 ft 480 kts 204°